Terug naar catalogus

CZ-6A DEB

ActiefSSO
NORAD 54450·DEBRIS·🇨🇳 China

Gelanceerd Nov 11, 2022 vanaf Taiyuan Satellite Launch Center

Loading…

Volgende Passages (komende 24 uur)

TLE

VersSource: Space-Track

Epoch: Sep 14, 2026, 20:53 UTC

1 54450U 22151GA  26257.87042592  .00000632  00000-0  17523-3 0  9990
2 54450  98.6539 317.1207 0147063  77.8792 283.8830 14.43990875201928

Volg CZ-6A DEB in realtime met AllMySat

Download on the App Store